Tracking 22994 objects as of 8-May-2021
HD Live streaming from Space Station
objects crossing your sky now

SL-3 R/B

Track SL-3 R/B now!
10-day predictions


NORAD ID: 12586
Int'l Code: 1981-065B
Perigee: 527.1 km
Apogee: 553.3 km
Inclination: 97.7 °
Period: 95.3 minutes
Semi major axis: 6911 km
RCS: 7.238 m2 (large)
Launch date: July 10, 1981
Source: Commonwealth of Independent States (former USSR) (CIS)
Launch site: TYURATAM MISSILE AND SPACE COMPLEX (TTMTR)

Note: This is a ROCKET BODY
aabbcc
Your satellite tracking list
Your tracking list is empty




NASA's NSSDC Master Catalog

Two Line Element Set (TLE):
1 12586U 81065B   21127.94913967  .00000217  00000-0  16919-4 0  9993
2 12586  97.6549 116.0137 0018915  10.7032 349.4596 15.11030214166810
Source of the keplerian elements: AFSPC